Back to catalog

SL-8 R/B

AliveLEO
NORAD 11751·ROCKET BODY·🇷🇺 Russia

Launched Apr 3, 1980 from Plesetsk Cosmodrome

Loading…

Next Passes (next 24 hours)

TLE

FreshSource: Space-Track

Epoch: Sep 13, 2026, 22:16 UTC

1 11751U 80026B   26256.92832700  .00000010  00000-0  91438-4 0  9993
2 11751  65.8406  52.3341 0020675 276.2511 253.5626 13.77360332334462

Track SL-8 R/B in real time with AllMySat

Download on the App Store